When you browse on this site, cookies collect data to enhance your experience and personalize the content and advertising you see.
Visit our Privacy Policy to learn more. By continuing to use the site, you agree to this use of cookies and data.
  • In Spain
  • List of Countries
  • For 7 days
  • Water Temperature
  • Satellite Maps
  • Weather Map
  • Weather Widgets
  • user-avatar
    Login

    Hourly Weather Seattle

    Today, 17 June, Monday

    Time Temperature Precipitation Wind Pressure Humidity
    00:00 +13°C° 0 mm 1 mps 649 mmHg 74%
    01:00 +12°C° 0 mm 1 mps 649 mmHg 77%
    02:00 +11°C° 0 mm 1 mps 649 mmHg 79%
    03:00 +11°C° 0 mm 1 mps 649 mmHg 79%
    04:00 +11°C° 0 mm 1 mps 649 mmHg 80%
    05:00 +10°C° 0 mm 0 mps 649 mmHg 80%
    06:00 +12°C° 0 mm 1 mps 649 mmHg 76%
    07:00 +14°C° 0 mm 1 mps 649 mmHg 72%
    08:00 +15°C° 0 mm 1 mps 650 mmHg 68%
    09:00 +18°C° 0 mm 1 mps 650 mmHg 63%
    10:00 +18°C° 0 mm 2 mps 650 mmHg 59%
    11:00 +20°C° 0 mm 2 mps 650 mmHg 54%
    12:00 +20°C° 0.1 mm 2 mps 650 mmHg 52%
    13:00 +20°C° 0.1 mm 2 mps 650 mmHg 50%
    14:00 +21°C° 0.1 mm 2 mps 650 mmHg 48%
    15:00 +20°C° 0.3 mm 2 mps 650 mmHg 54%
    16:00 +19°C° 0.3 mm 2 mps 649 mmHg 61%
    17:00 +19°C° 0.3 mm 1 mps 649 mmHg 68%
    18:00 +18°C° 0.1 mm 1 mps 649 mmHg 70%
    19:00 +18°C° 0.1 mm 1 mps 649 mmHg 72%
    20:00 +16°C° 0.1 mm 1 mps 649 mmHg 74%
    21:00 +15°C° 0 mm 2 mps 649 mmHg 75%
    22:00 +14°C° 0 mm 2 mps 648 mmHg 77%
    23:00 +12°C° 0 mm 2 mps 648 mmHg 79%

    Tomorrow, 18 June, Tuesday

    Time Temperature Precipitation Wind Pressure Humidity
    00:00 +12°C° 0 mm 2 mps 648 mmHg 79%
    01:00 +12°C° 0 mm 2 mps 647 mmHg 79%
    02:00 +12°C° 0 mm 2 mps 647 mmHg 79%
    03:00 +12°C° 0 mm 2 mps 647 mmHg 80%
    04:00 +10°C° 0 mm 3 mps 647 mmHg 80%
    05:00 +10°C° 0 mm 3 mps 647 mmHg 80%
    06:00 +13°C° 0 mm 3 mps 647 mmHg 75%
    07:00 +16°C° 0 mm 3 mps 648 mmHg 71%
    08:00 +18°C° 0 mm 4 mps 648 mmHg 67%
    09:00 +20°C° 0 mm 4 mps 648 mmHg 60%
    10:00 +21°C° 0 mm 4 mps 648 mmHg 53%
    11:00 +23°C° 0 mm 5 mps 648 mmHg 46%
    12:00 +23°C° 0 mm 5 mps 648 mmHg 43%
    13:00 +25°C° 0 mm 5 mps 648 mmHg 40%
    14:00 +26°C° 0 mm 5 mps 648 mmHg 37%
    15:00 +26°C° 0 mm 5 mps 648 mmHg 39%
    16:00 +24°C° 0 mm 6 mps 648 mmHg 41%
    17:00 +24°C° 0 mm 6 mps 648 mmHg 43%
    18:00 +22°C° 0 mm 5 mps 647 mmHg 48%
    19:00 +20°C° 0 mm 4 mps 647 mmHg 54%
    20:00 +18°C° 0 mm 3 mps 647 mmHg 59%
    21:00 +17°C° 0 mm 3 mps 646 mmHg 61%
    22:00 +16°C° 0 mm 3 mps 646 mmHg 63%
    23:00 +13°C° 0 mm 3 mps 646 mmHg 65%

    Day after tomorrow, 19 June, Wednesday

    Time Temperature Precipitation Wind Pressure Humidity
    00:00 +14°C° 0 mm 2 mps 645 mmHg 68%
    01:00 +13°C° 0 mm 2 mps 645 mmHg 71%
    02:00 +12°C° 0 mm 2 mps 644 mmHg 74%
    03:00 +12°C° 0 mm 2 mps 644 mmHg 74%
    04:00 +11°C° 0 mm 3 mps 644 mmHg 74%
    05:00 +11°C° 0 mm 3 mps 643 mmHg 73%
    06:00 +13°C° 0 mm 4 mps 643 mmHg 67%
    07:00 +14°C° 0 mm 6 mps 643 mmHg 60%
    08:00 +16°C° 0 mm 7 mps 643 mmHg 54%
    09:00 +17°C° 0 mm 8 mps 643 mmHg 48%
    10:00 +17°C° 0 mm 8 mps 643 mmHg 42%
    11:00 +18°C° 0 mm 9 mps 643 mmHg 36%
    12:00 +18°C° 0 mm 10 mps 643 mmHg 35%
    13:00 +18°C° 0 mm 10 mps 643 mmHg 34%
    14:00 +18°C° 0 mm 11 mps 643 mmHg 32%
    15:00 +17°C° 0 mm 11 mps 643 mmHg 36%
    16:00 +16°C° 0 mm 11 mps 642 mmHg 39%
    17:00 +14°C° 0 mm 11 mps 642 mmHg 42%
    18:00 +12°C° 0 mm 9 mps 642 mmHg 46%
    19:00 +11°C° 0 mm 7 mps 642 mmHg 50%
    20:00 +9°C° 0 mm 5 mps 642 mmHg 54%
    21:00 +8°C° 0 mm 5 mps 643 mmHg 55%
    22:00 +8°C° 0 mm 4 mps 643 mmHg 56%
    23:00 +7°C° 0 mm 4 mps 643 mmHg 58%

    20 June, Thursday

    Time Temperature Precipitation Wind Pressure Humidity
    00:00 +7°C° 0 mm 3 mps 643 mmHg 60%
    01:00 +7°C° 0 mm 3 mps 642 mmHg 62%
    02:00 +5°C° 0 mm 3 mps 642 mmHg 64%
    03:00 +5°C° 0 mm 2 mps 642 mmHg 67%
    04:00 +5°C° 0 mm 2 mps 642 mmHg 69%
    05:00 +4°C° 0 mm 2 mps 642 mmHg 72%
    06:00 +6°C° 0 mm 2 mps 642 mmHg 66%
    07:00 +8°C° 0 mm 3 mps 642 mmHg 60%
    08:00 +9°C° 0 mm 3 mps 642 mmHg 54%
    09:00 +10°C° 0.3 mm 4 mps 642 mmHg 52%
    10:00 +10°C° 0.3 mm 5 mps 643 mmHg 50%
    11:00 +11°C° 0.3 mm 6 mps 643 mmHg 47%
    12:00 +13°C° 0.1 mm 6 mps 643 mmHg 45%
    13:00 +13°C° 0.1 mm 6 mps 644 mmHg 43%
    14:00 +14°C° 0.1 mm 7 mps 644 mmHg 40%
    15:00 +12°C° 0 mm 7 mps 644 mmHg 42%
    16:00 +12°C° 0 mm 7 mps 644 mmHg 45%
    17:00 +11°C° 0 mm 6 mps 644 mmHg 47%
    18:00 +10°C° 0 mm 5 mps 644 mmHg 53%
    19:00 +8°C° 0 mm 4 mps 644 mmHg 59%
    20:00 +7°C° 0 mm 3 mps 643 mmHg 65%
    21:00 +7°C° 0 mm 2 mps 644 mmHg 67%
    22:00 +6°C° 0 mm 2 mps 644 mmHg 70%
    23:00 +6°C° 0 mm 2 mps 644 mmHg 72%

    21 June, Friday

    Time Temperature Precipitation Wind Pressure Humidity
    00:00 +6°C° 0.2 mm 2 mps 644 mmHg 76%
    01:00 +5°C° 0.2 mm 2 mps 644 mmHg 80%
    02:00 +5°C° 0.2 mm 2 mps 644 mmHg 84%
    03:00 +5°C° 0.7 mm 2 mps 644 mmHg 86%
    04:00 +5°C° 0.7 mm 2 mps 644 mmHg 88%
    05:00 +5°C° 0.7 mm 2 mps 645 mmHg 90%
    06:00 +4°C° 0.3 mm 3 mps 645 mmHg 89%
    07:00 +5°C° 0.3 mm 3 mps 646 mmHg 89%
    08:00 +5°C° 0.3 mm 4 mps 646 mmHg 88%
    09:00 +6°C° 0.3 mm 4 mps 646 mmHg 87%
    10:00 +6°C° 0.3 mm 4 mps 647 mmHg 85%
    11:00 +7°C° 0.3 mm 4 mps 647 mmHg 83%
    12:00 +6°C° 1.4 mm 4 mps 647 mmHg 85%
    13:00 +6°C° 1.4 mm 4 mps 646 mmHg 86%
    14:00 +6°C° 1.4 mm 4 mps 646 mmHg 87%
    15:00 +7°C° 0.6 mm 4 mps 646 mmHg 85%
    16:00 +8°C° 0.6 mm 4 mps 646 mmHg 82%
    17:00 +10°C° 0.6 mm 4 mps 647 mmHg 80%
    18:00 +10°C° 0.3 mm 3 mps 647 mmHg 81%
    19:00 +9°C° 0.3 mm 3 mps 647 mmHg 82%
    20:00 +9°C° 0.3 mm 3 mps 647 mmHg 83%
    21:00 +9°C° 0 mm 3 mps 647 mmHg 83%
    22:00 +8°C° 0 mm 3 mps 647 mmHg 82%
    23:00 +8°C° 0 mm 3 mps 647 mmHg 81%

    22 June, Saturday

    Time Temperature Precipitation Wind Pressure Humidity
    00:00 +7°C° 0 mm 3 mps 647 mmHg 81%
    01:00 +7°C° 0 mm 3 mps 646 mmHg 81%
    02:00 +7°C° 0 mm 3 mps 646 mmHg 81%
    03:00 +7°C° 0 mm 3 mps 646 mmHg 82%
    04:00 +7°C° 0 mm 2 mps 647 mmHg 82%
    05:00 +7°C° 0 mm 2 mps 647 mmHg 82%
    06:00 +8°C° 0.1 mm 3 mps 647 mmHg 79%
    07:00 +10°C° 0.1 mm 3 mps 648 mmHg 76%
    08:00 +11°C° 0.1 mm 3 mps 648 mmHg 73%
    09:00 +12°C° 0.4 mm 3 mps 648 mmHg 70%
    10:00 +13°C° 0.4 mm 3 mps 649 mmHg 68%
    11:00 +14°C° 0.4 mm 3 mps 649 mmHg 65%
    12:00 +16°C° 0.4 mm 3 mps 649 mmHg 61%
    13:00 +16°C° 0.4 mm 3 mps 648 mmHg 57%
    14:00 +17°C° 0.4 mm 2 mps 648 mmHg 53%
    15:00 +17°C° 0.5 mm 2 mps 648 mmHg 55%
    16:00 +17°C° 0.5 mm 2 mps 648 mmHg 57%
    17:00 +17°C° 0.5 mm 2 mps 647 mmHg 58%
    18:00 +16°C° 0.7 mm 2 mps 647 mmHg 65%
    19:00 +14°C° 0.7 mm 1 mps 646 mmHg 72%
    20:00 +12°C° 0.7 mm 0 mps 646 mmHg 79%
    21:00 +12°C° 0.1 mm 1 mps 646 mmHg 80%
    22:00 +11°C° 0.1 mm 1 mps 646 mmHg 82%
    23:00 +10°C° 0.1 mm 1 mps 645 mmHg 84%
    Show more